STARLINK-31954, 60102

Orbit data source: Space-Track

STARLINK-31954, 60102 is a payload satellite owned by SpaceX/Seattle (US) in LEO that was launched on Sun, 23 Jun 2024 UTC via an FALCON 9 launch vehicle from the Air Force Eastern Test Range (AFETR). Payload-class satellites include a variety of spacecraft equipped with specific instruments for various scientific and technological missions. These include communications satellites like Starlink; space stations such as the ISS; scientific satellites like the Hubble; Earth observation satellites from companies like Planet Labs, Umbra, and HawkEye 360; GPS; miniature CubeSats for education and research; and military/defense satellites.

Loading next visibility...
Identifier
60102, 2024-117M
Orbit
LEO
Country
Flag of USUS
Related business
Manufacturer
SpaceX/Seattle
Mission
Operational Commercial Communications
Bus & Motor
STARLINK V2M, Unknown motor
Mass
730 kg wet, ~700 kg dry
Launch date (UTC)
2024-06-23 (2 years ago)
Launch vehicle
FALCON 9
Launch site
Air Force Eastern Test Range (AFETR)
Object type
Payload
Rocket body
Debris
Shape & HBR
Box + 2 Pan, 17.7 m
Radar Cross Section
33.884 m², Large (>1 m²)

Expand to show TLE details & history
Last TLE update: 1 day ago

TLE from 1 day ago
0 STARLINK-31954
1 60102U 24117M   26170.58009536 -.00007374  00000-0 -23675-3 0  9995
2 60102  53.1615 284.0502 0001195  99.9975 260.1161 15.30242571112480
Epoch: 2026-06-19T13:55Z
TLE epoch observation values (Epoch: 2026-06-19T13:55:20.239Z)
Latitude
0.00002°
Longitude
167.40885°
Altitude
476.129 km
Speed
7.629 km/s
True Right ascension
18h 56m 12s
True Declination
0° 00' 00"
Sunlit
Object was in full shadow at epoch
Visualization orbit readout
Latitude
Unknown
Longitude
Unknown
Altitude
Unknown
Speed
Unknown
Apparent Right ascension
Unknown
Apparent Declination
Unknown
Sunlit
N/A
Visualization observer readout
Local Sidereal Time
07:11:54
Azimuth
Unknown
Elevation
Unknown
Doppler factor
Unknown
Orbital elements
Apogee altitude
476.163 km
Perigee altitude
474.525 km
Semi-major axis
6,853.481 km
Eccentricity
0.00012
Inclination
53.1615°
RAAN
284.0502°
Arg. of periapsis
99.9975°
True anomaly
260.10261°
Mean anomaly
260.1161°
Eccentric anomaly
260.10935°
Mean motion
3.8254 °/min
Orbital period
94.11 mins
BSTAR
-0.00023675
Loading maneuver chart data...
Computing Atmospheric mass density...
Loading historical data...
Loading historical data...
Loading historical data...
Loading historical data...
Loading historical data...
Loading historical data...
Loading historical data...

Documentation

Showing up to 5 results
|